Showing default

INTELSAT 2-F1, 2514

Orbit data source: Space-Track

INTELSAT 2-F1, 2514 is a payload satellite owned by INTELSAT (US) in HEO that was launched on Wed, 26 Oct 1966 UTC via a THOR DELTA E1 launch vehicle from the Air Force Eastern Test Range (AFETR). Payloads include a variety of satellites, spacecraft, and rockets equipped with specific instruments for various scientific and technological missions. These include communications satellites like Starlink; space stations such as the ISS; scientific satellites like the Hubble; Earth observation satellites from companies like Planet Labs, Umbra, and HawkEye 360; GPS; miniature CubeSats for education and research; and military/defense satellites.

Loading next visibility...
INTELSAT 2-F1 details
Identifier
2514, 1966-096A
Orbit
HEO
Last TLE update1 day ago
Origin
Flag of USINTELSAT (US / ITSO)
ManufacturerHughes
MissionNon-operational Civil Communications
Bus & MotorHS-303, SVM-1
Mass162 kg wet, 64 kg dry
Launch date (UTC)
1966-10-26 (58 years ago)
Launch vehicle
THOR DELTA E1
Launch site
Air Force Eastern Test Range (AFETR)
Object type
Payload
Rocket body
Debris
Shape & HBRCyl, 1.4 m
Radar Cross Section2.199 m², Large (>1 m²)

Expand to show TLE details & history

TLE from 1 day ago
0 INTELSAT 2-F1
1 02514U 66096A   25042.55809836 -.00000285  00000-0  00000-0 0  9992
2 02514  17.1209 148.5748 6348462  10.0741 358.1058  2.00583185 84977
Epoch: 2025-02-11T13:23Z
Definitive object data (Epoch: 2025-02-11T13:23:39.698Z)
Latitude-0.00003°
Longitude165.80008°
Altitude3,351.321 km
Speed8.181 km/s
True Right ascension09h 54m 18s
True Declination0° 00' 00"
Sunlit
Object was in full shadow at TLE epoch
Visualization TLE readout
Latitude17.13957°
Longitude-98.58662°
Altitude8,640.204 km
Speed6.171 km/s
Apparent Right ascension16h 07m 37s
Apparent Declination2° 04' 23"
Sunlit
Object is in daylight
Visualization observer readout
Local Sidereal Time16:34:27
Azimuth190.854° SSW
Elevation51.669°
Doppler factor1
Orbital elements
Apogee altitude37,046.261 km
Perigee altitude3,320.992 km
Semi-major axis26,561.764 km
Eccentricity0.6348462
Inclination17.1209°
RAAN148.5748°
Arg. of periapsis10.0741°
True anomaly349.07548°
Mean anomaly358.1058°
Eccentric anomaly354.82483°
Mean motion0.50137 °/min
BSTARUnknown
Orbital period718.03 mins
Loading maneuver chart data...
Loading historical data...
Loading historical data...
Loading historical data...
Loading historical data...
Loading historical data...
Loading historical data...
Loading historical data...
Other satellites on launch #96 in the year 1966 (1966-10-26 UTC)

INTELSAT 2-F1 Visibility forecast

Observer location: undefined°, undefined

Span
Click to sort rows by Start time (UTC) header in descending order
Start Az.
Max El. time (UTC)
Max El. Az.
Max El.
End time (UTC)
End Az.
624 mins2025-02-12 14:03:26.203Z190.834° SSW2025-02-12 14:11:26.203Z173.367° S38.727°2025-02-13 00:27:26.203Z162.961° S
27 mins2025-02-13 13:36:26.203Z243.675° WSW2025-02-13 14:03:26.203Z180.637° SSW38.582°2025-02-13 14:03:26.203Z180.637° SSW
|